Tracking 20041 objects as of 22-Nov-2019
Live streaming from Space Station
objects crossing your sky now

DELTA 1 DEB

Track DELTA 1 DEB now!
10-day predictions


NORAD ID: 12255
Int'l Code: 1978-026CY
Perigee: 886.8 km
Apogee: 909.1 km
Inclination: 98.7 °
Period: 102.8 minutes
Semi major axis: 7268 km
RCS: 0.0045 m2 (small)
Launch date: March 5, 1978
Source: United States (US)
Launch site: AIR FORCE WESTERN TEST RANGE (AFWTR)

Note: This is SATELLITE DEBRIS
aabbcc
Your satellite tracking list
Your tracking list is empty




NASA's NSSDC Master Catalog

Two Line Element Set (TLE):
1 12255U 78026CY  19325.92808038  .00000027  00000-0  45910-4 0  9998
2 12255  98.6877 315.1160 0015299 218.9951 170.9148 14.00856917293678
Source of the keplerian elements: AFSPC